Date,TemperatureHighF,TemperatureAvgF,TemperatureLowF,DewpointHighF,DewpointAvgF,DewpointLowF,HumidityHigh,HumidityAvg,HumidityLow,PressureMaxIn,PressureMinIn,WindSpeedMaxMPH,WindSpeedAvgMPH,GustSpeedMaxMPH,PrecipitationSumIn
2013-1-1,40.4,36.0,33.5,35.8,33.4,31.7,93,90,83,30.47,30.36,1,0,0,0.00
2013-1-2,43.8,34.8,28.2,36.3,31.4,26.4,94,88,72,30.35,30.19,5,1,8,0.01
2013-1-3,40.8,33.1,25.2,35.4,29.5,23.5,94,87,72,30.19,30.05,7,1,7,0.01
2013-1-4,45.5,39.5,31.6,41.6,36.8,29.5,93,90,83,30.28,30.08,3,1,3,0.00
2013-1-5,47.1,43.3,39.3,42.6,40.5,36.6,95,90,81,30.16,30.03,15,4,15,0.02
2013-1-6,44.6,38.7,32.8,41.3,36.3,31.0,94,91,86,30.13,29.90,3,0,4,0.00
2013-1-7,50.9,44.2,38.5,46.2,40.6,36.7,95,88,71,30.12,29.75,17,5,22,0.08
2013-1-8,46.6,43.2,40.1,45.0,40.6,37.7,94,91,83,30.13,29.62,11,2,12,0.30
2013-1-9,46.7,40.8,30.3,45.1,37.1,27.7,94,87,78,29.92,29.65,19,6,19,0.18
2013-1-10,40.6,35.6,28.5,36.1,32.1,25.9,93,87,76,30.14,29.92,10,3,10,0.07
2013-1-11,39.0,33.6,28.2,31.6,24.9,21.2,89,72,51,30.32,30.14,7,2,8,0.00
2013-1-12,38.0,30.1,26.4,30.9,25.0,22.3,92,81,67,30.44,30.31,5,1,12,0.01
2013-1-13,36.7,30.6,24.8,30.9,26.6,22.0,90,85,76,30.48,30.42,4,1,7,0.00
2013-1-14,39.9,35.7,32.6,36.8,33.0,29.7,92,90,87,30.55,30.44,3,0,3,0.00
2013-1-15,42.4,36.3,31.0,36.6,33.0,29.2,94,88,76,30.70,30.56,2,1,4,0.00
2013-1-16,40.8,37.5,35.5,35.4,33.6,31.5,90,86,81,30.68,30.52,4,1,4,0.00
2013-1-17,40.6,36.3,30.3,37.0,33.8,28.5,94,90,87,30.54,30.27,3,1,4,0.00
2013-1-18,39.5,36.7,33.9,37.1,34.9,32.4,95,93,89,30.34,30.25,3,1,3,0.00
2013-1-19,40.4,36.6,30.2,36.5,33.9,28.4,93,90,85,30.39,30.34,3,1,5,0.00
2013-1-20,41.9,36.3,29.6,38.5,34.2,27.8,95,92,86,30.39,30.28,4,1,5,0.00
2013-1-21,39.3,36.3,32.7,37.4,34.6,31.4,96,94,91,30.27,30.13,3,1,6,0.00
2013-1-22,37.7,35.8,34.4,34.7,33.7,32.8,94,92,88,30.13,29.90,3,1,3,0.00
2013-1-23,43.1,39.6,35.8,40.5,37.5,34.2,94,92,90,30.09,29.81,7,2,7,0.06
2013-1-24,41.3,36.8,30.3,39.1,34.9,28.8,95,92,89,30.17,29.96,2,0,4,0.00
2013-1-25,48.3,37.5,31.8,42.5,35.1,30.1,94,91,74,30.03,29.87,6,1,6,0.00
2013-1-26,45.0,39.3,31.9,42.2,37.0,30.4,95,92,85,30.01,29.82,3,1,3,0.08
2013-1-27,43.6,39.2,35.0,39.4,36.9,33.2,94,91,85,30.02,29.96,13,1,13,0.06
2013-1-28,46.5,43.8,41.8,40.1,38.4,35.7,91,81,72,30.05,29.98,16,10,21,0.07
2013-1-29,48.1,46.5,44.3,44.5,43.0,39.9,94,88,76,30.30,30.06,19,6,29,0.07
2013-1-30,49.5,45.9,43.6,47.0,44.2,42.2,96,94,88,30.36,30.29,4,1,5,0.17
2013-1-31,49.6,45.6,42.4,47.1,43.8,41.1,96,93,89,30.36,30.27,7,3,11,0.01
2013-2-1,47.4,43.7,39.6,43.5,41.2,37.5,93,91,84,30.42,30.33,6,1,8,0.00
2013-2-2,44.5,42.3,40.4,40.9,39.8,38.7,94,91,84,30.40,30.23,4,1,5,0.00
2013-2-3,47.1,42.0,37.1,42.0,39.4,35.5,94,91,81,30.29,30.19,5,1,5,0.04
2013-2-4,46.6,42.0,36.2,43.4,39.9,34.9,95,92,86,30.17,29.82,3,1,4,0.01
2013-2-5,50.1,42.7,37.2,43.4,40.0,35.3,94,90,77,29.87,29.75,6,1,8,0.05
2013-2-6,46.1,41.3,35.6,42.2,38.6,34.0,95,90,78,29.97,29.66,18,3,21,0.01
2013-2-7,46.4,41.4,32.0,40.1,36.7,29.9,93,83,72,30.19,29.66,14,3,22,0.00
2013-2-8,47.5,37.7,29.0,39.0,33.7,27.0,93,86,70,30.30,30.20,6,1,7,0.00
2013-2-9,44.8,41.0,36.6,42.1,38.7,33.9,95,92,87,30.34,30.25,4,1,4,0.06
2013-2-10,46.3,42.8,38.6,42.0,39.0,37.0,95,87,74,30.38,30.32,6,1,8,0.01
2013-2-11,46.1,43.7,41.1,44.1,41.8,39.2,95,93,91,30.33,30.30,4,1,4,0.05
2013-2-12,51.2,44.0,40.8,45.4,41.3,38.7,94,90,80,30.37,30.26,10,2,11,0.00
2013-2-13,49.1,46.0,41.0,42.9,41.0,37.4,89,83,76,30.44,30.28,13,5,23,0.00
2013-2-14,48.8,45.7,43.4,43.5,42.7,41.8,94,89,78,30.56,30.50,5,1,5,0.12
2013-2-15,47.6,44.7,40.2,45.4,42.6,38.3,95,92,88,30.56,30.17,4,1,7,0.01
2013-2-16,48.8,44.7,39.9,44.1,40.3,37.4,94,85,76,30.17,30.10,21,9,22,0.00
2013-2-17,45.2,40.6,32.5,38.3,35.2,29.9,91,81,70,30.22,30.09,13,2,13,0.00
2013-2-18,49.0,38.6,33.8,40.0,35.0,31.5,92,87,70,30.08,29.70,4,1,10,0.00
2013-2-19,46.1,39.1,31.7,39.7,34.6,29.1,92,84,64,29.99,29.71,8,2,8,0.00
2013-2-20,45.4,36.6,29.4,38.6,32.5,27.1,93,85,70,30.01,29.95,8,2,11,0.00
2013-2-21,47.8,41.3,35.4,39.8,36.8,32.5,92,84,73,30.03,29.95,9,2,10,0.01
2013-2-22,48.0,42.2,38.1,43.1,38.3,31.8,93,86,76,29.99,29.62,19,5,22,0.02
2013-2-23,48.1,43.1,35.9,38.3,34.7,31.3,86,72,62,30.34,29.86,17,10,19,0.01
2013-2-24,49.9,41.9,38.1,39.8,36.0,32.4,89,80,64,30.35,29.81,5,1,5,0.00
2013-2-25,49.6,44.3,34.9,41.4,34.9,26.8,92,71,45,30.27,29.81,25,10,30,0.01
2013-2-26,45.0,38.5,30.8,38.7,31.6,25.3,90,77,63,30.30,30.10,6,1,7,0.00
2013-2-27,48.2,41.9,35.5,41.1,37.7,33.6,93,85,67,30.27,30.17,6,2,8,0.01
2013-2-28,47.6,43.2,38.5,44.3,40.7,35.8,94,91,87,30.25,30.13,5,2,6,0.07
2013-3-1,59.0,49.3,42.7,51.1,45.9,41.1,96,88,75,30.25,30.20,9,2,9,0.01
2013-3-2,49.3,46.1,42.3,47.3,42.2,31.8,95,87,65,30.22,30.05,20,7,25,0.02
2013-3-3,48.1,42.8,31.2,40.0,35.6,29.1,92,76,67,30.30,30.19,15,7,15,0.00
2013-3-4,47.3,37.0,28.9,37.3,32.1,26.6,93,83,67,30.30,29.95,7,2,10,0.00
2013-3-5,48.2,40.4,32.1,40.1,35.9,29.5,92,84,68,29.94,29.75,7,2,8,0.01
2013-3-6,42.9,41.6,39.6,40.2,39.1,37.9,94,91,87,29.86,29.63,10,3,11,0.26
2013-3-7,48.5,42.4,38.9,43.3,39.8,37.3,95,91,82,30.10,29.87,5,1,7,0.04
2013-3-8,47.7,42.3,34.2,42.7,38.4,32.1,94,86,68,30.23,30.09,6,1,8,0.00
2013-3-9,48.7,40.5,29.4,41.7,35.9,27.6,94,84,74,30.49,30.24,7,3,9,0.01
2013-3-10,44.5,43.2,40.7,41.5,39.7,37.8,93,88,79,30.49,30.41,5,2,6,0.04
2013-3-11,48.5,43.9,41.1,43.3,40.7,38.3,94,88,78,30.44,30.08,7,1,8,0.00
2013-3-12,51.5,47.3,41.8,49.5,45.3,39.4,95,93,91,30.08,29.96,6,1,6,0.25
2013-3-13,53.6,48.9,45.5,50.8,47.1,44.2,96,94,89,30.12,30.02,6,2,6,0.06
2013-3-14,52.9,47.6,45.2,49.2,45.6,43.4,96,93,79,30.08,29.98,5,1,8,0.00
2013-3-15,52.8,47.7,42.1,48.7,45.6,40.9,96,92,86,30.18,30.11,8,3,8,0.03
2013-3-16,47.0,44.6,39.1,45.5,41.4,34.5,95,89,74,30.11,29.87,23,8,32,0.09
2013-3-17,47.3,43.0,39.0,37.1,34.4,31.1,84,72,55,30.16,29.95,17,12,22,0.00
2013-3-18,48.1,42.3,35.7,38.1,35.2,31.6,91,77,60,30.24,30.06,18,8,27,0.04
2013-3-19,47.8,39.2,31.4,39.8,34.4,28.9,92,83,70,30.22,29.49,10,2,12,0.00
2013-3-20,53.0,45.0,38.1,46.2,39.4,30.2,94,81,68,29.97,29.23,23,8,26,0.07
2013-3-21,45.1,39.0,30.8,37.2,32.5,26.8,90,77,64,30.20,29.99,19,8,19,0.01
2013-3-22,45.8,40.5,31.2,34.8,30.1,25.6,85,67,49,30.37,30.20,13,5,14,0.00
2013-3-23,47.6,39.7,31.7,36.7,32.4,28.0,86,75,63,30.38,30.30,6,1,11,0.00
2013-3-24,48.8,38.6,29.8,37.6,32.9,27.2,91,81,60,30.30,30.12,10,2,10,0.00
2013-3-25,51.7,43.3,31.6,41.1,35.6,29.8,93,75,56,30.13,29.95,9,2,11,0.00
2013-3-26,53.0,46.6,38.0,41.7,39.0,34.1,89,76,59,30.01,29.97,6,2,6,0.00
2013-3-27,51.5,45.4,39.4,45.6,41.2,37.5,93,85,75,29.99,29.95,5,2,6,0.01
2013-3-28,54.5,44.7,36.3,47.6,41.4,34.7,95,88,72,30.14,30.00,7,2,8,0.02
2013-3-29,49.0,43.8,39.4,45.9,42.1,37.5,95,94,87,30.27,30.14,7,3,8,0.00
2013-3-30,59.7,47.4,33.9,48.1,42.0,32.6,96,83,60,30.28,30.10,7,2,8,0.01
2013-3-31,61.6,49.9,37.7,48.0,41.7,34.8,90,75,50,30.10,29.92,7,2,8,0.00
2013-4-1,54.0,47.4,39.4,48.0,43.7,36.1,94,87,77,30.13,29.95,10,4,12,0.00
2013-4-2,53.6,48.7,46.1,45.1,44.0,42.9,93,84,69,30.19,30.13,10,4,10,0.00
2013-4-3,54.3,49.0,46.1,47.3,45.0,43.5,93,86,76,30.19,29.97,8,2,11,0.00
2013-4-4,49.7,47.9,46.3,47.4,45.6,43.9,95,92,87,29.96,29.56,4,1,7,0.00
2013-4-5,54.6,48.4,45.0,49.2,46.1,43.4,96,92,80,29.81,29.62,9,1,13,0.05
2013-4-6,52.3,47.5,43.8,46.1,44.0,41.1,94,88,68,29.88,29.58,13,3,14,0.21
2013-4-7,50.8,45.4,39.8,45.2,41.5,37.7,94,86,75,29.86,29.58,15,7,20,0.41
2013-4-8,55.6,48.7,42.7,45.8,42.8,39.8,91,80,65,30.25,29.86,7,3,8,0.00
2013-4-9,48.4,46.4,41.7,44.6,43.0,39.5,92,88,84,30.32,30.12,6,2,6,0.01
2013-4-10,53.9,47.8,38.7,47.9,43.2,37.1,95,85,68,30.23,29.87,18,11,19,0.14
2013-4-11,50.4,46.6,40.2,42.4,39.6,35.0,89,77,68,30.29,30.19,12,9,14,0.00
2013-4-12,44.2,42.3,39.7,40.1,37.2,33.3,91,82,68,30.18,29.64,25,4,27,0.14
2013-4-13,51.8,43.3,38.6,44.2,37.6,30.6,91,80,65,29.97,29.74,21,8,21,0.30
2013-4-14,50.4,41.9,33.3,41.2,36.4,31.2,94,82,61,29.99,29.92,8,2,10,0.00
2013-4-15,52.2,42.4,32.0,43.9,37.4,29.9,92,83,67,30.16,29.94,8,3,9,0.00
2013-4-16,57.3,45.7,32.0,41.7,34.0,26.2,93,67,31,30.39,30.17,6,2,9,0.00
2013-4-17,53.0,45.2,37.8,46.4,38.1,29.3,85,76,60,30.44,30.38,15,6,19,0.00
2013-4-18,53.2,46.6,43.2,47.5,43.8,40.7,94,90,80,30.43,30.16,10,3,11,0.10
2013-4-19,51.3,48.3,45.8,49.2,46.4,44.2,96,93,89,30.18,30.05,13,4,19,0.17
2013-4-20,53.5,48.3,46.3,47.6,44.6,42.8,93,87,76,30.26,30.18,14,8,17,0.00
2013-4-21,52.7,47.0,41.8,45.0,41.8,36.7,89,82,71,30.38,30.22,11,7,15,0.00
2013-4-22,57.9,45.6,32.4,42.6,33.1,21.6,90,65,26,30.56,30.39,7,2,8,0.00
2013-4-23,57.6,45.7,31.7,40.0,33.1,26.3,82,63,41,30.44,30.26,7,2,7,0.00
2013-4-24,64.3,53.4,40.5,46.1,39.8,33.6,83,61,40,30.32,30.06,7,3,9,0.00
2013-4-25,60.3,50.5,38.6,49.7,44.1,35.1,92,80,58,30.15,30.04,12,5,13,0.00
2013-4-26,58.5,50.0,42.7,48.9,44.0,38.7,93,81,51,30.25,30.15,11,5,13,0.00
2013-4-27,54.4,50.4,45.6,48.9,45.7,41.7,94,84,73,30.20,30.12,8,3,8,0.02
2013-4-28,51.3,47.9,45.9,46.4,42.7,39.6,93,82,65,30.21,29.93,11,5,12,0.02
2013-4-29,51.1,47.9,44.6,41.5,37.5,32.4,72,67,61,30.15,30.01,20,16,27,0.06
2013-4-30,55.1,46.6,37.1,39.3,33.6,23.5,81,62,32,30.43,30.15,13,5,16,0.00
2013-5-1,56.6,45.6,31.6,43.1,36.1,27.9,88,70,50,30.59,30.45,9,2,11,0.00
2013-5-2,60.0,48.2,35.4,45.0,38.8,32.2,89,71,47,30.56,30.40,8,2,10,0.00
2013-5-3,70.0,54.3,40.6,50.0,44.0,36.3,88,70,40,30.42,30.25,9,2,11,0.00
2013-5-4,70.6,59.2,44.7,50.7,44.7,39.2,82,60,41,30.27,30.01,8,2,9,0.00
2013-5-5,74.9,63.5,47.2,51.4,46.4,39.6,79,55,40,30.01,29.78,7,2,8,0.00
2013-5-6,77.2,57.4,47.2,53.9,47.1,42.1,94,70,44,29.85,29.78,14,5,16,0.00
2013-5-7,56.5,50.7,43.6,50.9,47.6,42.3,96,89,79,29.99,29.81,13,6,16,0.00
2013-5-8,58.2,52.2,47.9,51.1,48.5,45.1,93,87,76,30.14,30.00,10,4,15,0.00
2013-5-9,55.1,50.4,45.4,49.4,47.0,42.6,94,88,81,30.22,30.14,12,6,14,0.00
2013-5-10,53.0,49.3,46.5,49.5,46.7,44.6,95,91,86,30.21,30.13,10,4,10,0.00
2013-5-11,62.6,54.5,49.2,56.0,49.5,46.4,92,83,64,30.17,30.00,10,3,10,0.00
2013-5-12,63.4,57.5,53.2,58.3,55.2,51.5,96,92,82,30.05,29.99,8,3,11,0.15
2013-5-13,59.8,53.3,44.7,55.0,49.6,41.5,94,87,63,30.17,29.89,15,4,15,0.21
2013-5-14,59.1,50.8,42.0,48.1,44.0,39.8,93,79,54,30.22,30.12,8,3,10,0.00
2013-5-15,57.0,50.6,43.7,49.5,46.4,41.5,93,86,75,30.12,30.00,7,2,8,0.01
2013-5-16,61.4,53.4,47.2,53.7,50.0,45.3,96,88,70,30.00,29.89,7,3,8,0.02
2013-5-17,59.8,53.6,51.4,55.0,50.6,49.0,94,90,81,30.03,29.92,8,2,8,0.08
2013-5-18,57.3,52.8,50.3,50.9,49.2,48.0,95,88,74,30.27,30.03,7,3,9,0.01
2013-5-19,60.5,52.9,49.0,50.3,47.4,45.6,92,82,69,30.41,30.28,11,8,16,0.00
2013-5-20,56.5,50.0,42.6,49.4,45.5,40.2,93,85,76,30.36,29.94,14,6,17,0.04
2013-5-21,54.0,49.2,46.2,49.2,45.3,43.5,93,87,71,29.92,29.78,8,2,10,0.13
2013-5-22,57.1,50.9,45.4,47.9,45.4,43.0,94,82,63,29.93,29.84,7,2,7,0.17
2013-5-23,59.7,51.9,45.3,47.7,45.5,42.3,93,80,59,29.96,29.89,14,5,16,0.00
2013-5-24,59.0,50.0,41.2,48.2,45.1,39.1,94,84,60,30.03,29.95,9,3,12,0.00
2013-5-25,56.8,51.8,48.3,49.0,46.9,45.7,93,84,68,30.03,29.99,7,3,8,0.07
2013-5-26,57.5,52.3,49.1,52.7,49.6,47.3,94,91,84,29.98,29.93,6,2,8,0.13
2013-5-27,58.3,52.8,50.5,52.2,50.0,48.7,95,90,80,29.92,29.61,16,4,18,0.03
2013-5-28,56.8,53.5,51.3,51.8,49.9,47.7,94,88,80,29.85,29.73,9,3,13,0.01
2013-5-29,54.4,50.8,48.8,50.0,47.9,46.6,95,90,84,29.94,29.69,10,4,11,0.06
2013-5-30,58.0,52.1,47.8,50.9,48.1,45.6,93,86,73,30.22,29.95,9,3,9,0.20
2013-5-31,59.0,53.2,47.6,50.4,48.2,44.7,94,84,69,30.34,30.23,7,2,8,0.02
2013-6-1,62.7,54.9,48.8,51.8,48.8,45.6,92,80,66,30.25,30.08,7,3,9,0.00
2013-6-2,67.7,58.1,52.2,51.7,49.9,47.0,92,75,55,30.09,30.05,7,4,8,0.02
2013-6-3,61.5,55.0,47.6,52.5,50.2,45.4,94,84,71,30.12,30.07,8,5,10,0.00
2013-6-4,67.6,56.2,44.8,56.2,50.5,42.6,94,82,64,30.15,30.05,11,5,12,0.00
2013-6-5,59.4,55.3,52.1,55.1,52.1,49.7,95,89,81,30.12,30.03,11,8,15,0.00
2013-6-6,60.8,55.4,50.7,53.9,50.4,46.1,93,84,73,30.07,30.01,14,7,20,0.00
2013-6-7,60.1,55.4,52.4,53.3,48.8,44.6,86,79,72,30.16,30.02,12,6,18,0.00
2013-6-8,59.0,54.9,51.0,51.2,47.7,43.3,89,77,65,30.18,30.13,14,8,17,0.00
2013-6-9,57.6,53.4,48.9,50.8,47.6,44.6,89,81,75,30.12,30.05,12,8,13,0.00
2013-6-10,59.6,53.6,49.5,51.2,47.6,42.9,87,80,71,30.05,29.90,15,7,18,0.00
2013-6-11,60.0,54.5,50.0,51.1,48.0,45.9,89,79,66,30.08,29.93,9,4,11,0.00
2013-6-12,59.3,53.4,48.1,53.3,49.0,45.6,92,85,74,30.14,30.08,10,3,12,0.01
2013-6-13,59.3,54.7,51.4,51.7,49.7,47.8,92,83,75,30.22,30.13,15,7,17,0.01
2013-6-14,61.1,54.3,47.6,51.7,49.1,45.4,92,83,70,30.22,30.08,8,4,9,0.00
2013-6-15,67.4,56.6,42.4,54.4,49.4,40.8,95,78,58,30.07,29.93,7,2,7,0.00
2013-6-16,62.4,56.1,46.7,53.4,50.4,43.9,93,82,70,30.08,29.98,12,6,15,0.00
2013-6-17,67.0,58.9,53.3,55.3,52.2,50.3,93,79,60,30.08,29.92,10,5,11,0.09
2013-6-18,63.7,57.5,52.6,55.4,52.6,50.6,94,84,69,29.95,29.91,10,4,12,0.00
2013-6-19,61.6,56.6,53.5,53.6,51.5,49.8,91,83,71,30.00,29.90,14,7,16,0.06
2013-6-20,56.5,54.0,52.4,52.0,50.6,49.4,93,89,80,30.09,29.93,12,8,18,0.17
2013-6-21,63.5,57.4,51.7,54.4,52.4,49.9,94,84,70,30.16,30.10,9,4,10,0.00
2013-6-22,65.3,58.7,51.9,55.8,53.1,49.4,91,82,70,30.13,29.86,7,3,7,0.00
2013-6-23,61.7,58.1,53.8,57.8,55.3,51.2,94,90,85,29.86,29.60,5,1,5,0.05
2013-6-24,63.8,57.1,54.4,56.3,54.2,52.3,96,90,73,29.67,29.54,8,2,8,0.04
2013-6-25,67.3,56.7,51.3,58.7,53.5,49.9,96,89,74,29.79,29.62,7,2,7,0.06
2013-6-26,62.6,57.3,51.1,57.9,54.0,49.4,96,89,79,30.05,29.79,6,2,8,0.02
2013-6-27,65.0,58.7,53.1,59.9,55.8,51.1,95,90,82,30.20,30.02,9,3,9,0.10
2013-6-28,72.6,61.9,53.2,62.7,58.2,51.8,96,88,71,30.20,30.07,8,2,8,0.01
2013-6-29,68.8,63.0,58.1,61.2,57.9,53.9,95,84,69,30.09,30.00,11,4,14,0.00
2013-6-30,81.4,65.4,54.7,66.2,58.3,53.3,95,79,58,30.01,29.88,13,4,18,0.00
2013-7-1,66.3,60.2,56.6,59.6,57.0,55.2,96,89,78,30.02,29.90,16,10,20,0.00
2013-7-2,64.1,59.2,56.6,56.7,54.6,51.2,95,85,70,30.13,30.04,18,11,19,0.00
2013-7-3,64.3,59.0,55.3,56.0,53.5,50.2,89,82,74,30.16,30.07,16,11,22,0.00
2013-7-4,66.7,59.7,55.3,55.5,53.5,51.8,89,81,65,30.10,30.03,12,8,15,0.00
2013-7-5,71.3,60.8,54.9,56.7,53.8,51.7,90,79,55,30.03,29.96,8,4,8,0.00
2013-7-6,72.1,60.4,50.7,56.7,52.8,48.2,93,77,53,29.99,29.88,12,4,17,0.00
2013-7-7,64.5,58.2,52.4,56.4,53.6,50.4,94,85,75,29.94,29.88,10,6,11,0.00
2013-7-8,63.2,56.9,52.1,56.9,53.3,50.1,95,88,76,30.09,29.94,9,5,14,0.00
2013-7-9,60.1,55.6,51.7,54.4,52.3,50.3,96,89,80,30.12,30.01,16,9,19,0.00
2013-7-10,60.6,56.3,52.5,53.6,51.0,47.0,93,83,73,30.06,29.97,16,11,23,0.00
2013-7-11,61.1,56.8,51.5,51.5,49.0,45.5,86,75,69,30.08,29.98,12,8,15,0.00
2013-7-12,64.0,56.7,52.4,53.8,49.9,46.2,88,78,67,30.10,30.02,11,6,14,0.00
2013-7-13,65.9,56.0,45.1,54.4,49.8,42.6,93,80,64,30.20,30.10,11,5,12,0.00
2013-7-14,63.8,56.2,50.3,54.0,51.0,47.5,92,83,66,30.13,30.03,12,6,14,0.00
2013-7-15,78.7,63.8,47.7,55.8,49.6,45.0,94,64,31,30.08,29.92,9,3,10,0.00
2013-7-16,77.5,66.9,51.8,57.7,51.5,45.4,80,59,41,29.92,29.81,6,1,6,0.00
2013-7-17,66.8,62.8,57.9,56.8,54.6,52.6,83,75,62,30.18,29.86,12,6,16,0.00
2013-7-18,63.8,59.3,56.4,55.4,53.6,52.3,88,81,73,30.23,30.14,13,8,16,0.00
2013-7-19,61.9,57.8,54.6,55.6,53.7,52.3,92,87,79,30.17,30.06,15,10,18,0.00
2013-7-20,61.4,56.4,53.8,54.9,52.8,51.5,93,88,78,30.08,29.97,14,8,16,0.00
2013-7-21,63.5,56.8,53.5,56.5,53.4,51.5,94,89,78,29.97,29.92,11,6,14,0.00
2013-7-22,68.1,56.8,52.3,59.5,53.7,50.3,96,90,74,30.05,29.94,10,5,14,0.00
2013-7-23,59.0,55.0,52.0,53.8,52.0,50.9,96,90,81,30.08,30.00,13,8,15,0.00
2013-7-24,59.0,53.8,50.4,53.5,51.0,49.0,96,91,81,30.07,30.01,16,10,18,0.00
2013-7-25,64.4,56.2,51.6,56.7,52.4,50.0,96,87,75,30.11,30.03,13,9,15,0.00
2013-7-26,62.8,56.9,52.8,53.9,51.4,49.8,91,82,66,30.16,30.08,18,9,23,0.00
2013-7-27,67.6,56.7,45.0,55.7,50.9,43.1,94,82,63,30.15,30.00,10,4,10,0.00
2013-7-28,70.1,57.4,47.8,57.5,52.2,45.9,94,83,61,30.00,29.94,8,4,10,0.00
2013-7-29,60.3,54.8,50.2,53.8,51.4,47.7,94,89,79,30.01,29.95,9,4,11,0.00
2013-7-30,61.1,54.9,51.2,54.8,52.1,49.8,96,91,78,30.13,30.00,11,5,13,0.00
2013-7-31,58.4,54.3,52.2,54.0,52.1,50.5,96,92,84,30.12,30.00,10,4,12,0.00
2013-8-1,65.0,56.6,52.4,55.8,53.0,51.0,96,88,72,30.05,30.01,10,5,11,0.00
2013-8-2,59.2,57.4,55.8,56.7,55.0,53.2,95,92,88,30.13,30.04,6,2,7,0.22
2013-8-3,62.5,58.0,54.5,57.3,55.0,52.5,95,90,82,30.14,30.07,9,4,13,0.01
2013-8-4,66.1,59.7,54.5,57.6,54.8,52.2,96,84,74,30.07,29.97,9,6,12,0.00
2013-8-5,58.1,54.0,51.1,53.6,51.5,49.8,96,91,85,30.02,29.94,12,8,14,0.00
2013-8-6,60.1,54.1,50.5,54.2,51.3,49.4,96,91,80,30.01,29.94,11,7,13,0.00
2013-8-7,60.6,54.9,51.2,54.4,52.1,49.8,96,91,80,30.02,29.94,15,8,21,0.00
2013-8-8,60.9,55.3,51.4,55.7,53.2,50.3,97,93,83,30.03,29.94,15,9,17,0.00
2013-8-9,62.1,55.7,52.9,55.8,53.1,51.3,97,91,78,29.96,29.85,10,6,15,0.00
2013-8-10,62.6,56.6,52.4,56.7,53.7,51.2,96,90,81,30.00,29.86,13,7,17,0.00
2013-8-11,63.4,57.4,54.2,56.1,53.7,52.0,94,88,77,30.06,30.01,10,5,14,0.00
2013-8-12,64.9,58.2,52.3,57.6,54.1,50.6,95,86,75,30.07,30.01,11,5,13,0.00
2013-8-13,66.4,59.4,52.4,56.4,53.4,48.6,91,81,67,30.09,29.93,7,2,10,0.00
2013-8-14,66.5,58.3,49.5,59.2,54.3,47.6,95,87,70,29.94,29.91,6,2,6,0.03
2013-8-15,63.0,59.4,54.4,60.5,57.4,53.0,96,93,89,29.99,29.91,5,1,6,0.02
2013-8-16,70.1,60.5,51.5,62.6,56.5,50.3,97,87,74,30.00,29.96,9,3,9,0.01
2013-8-17,67.2,63.0,58.0,60.6,56.9,54.0,91,81,69,30.07,29.98,11,5,14,0.00
2013-8-18,68.7,62.2,57.8,59.5,56.1,54.1,91,81,69,30.12,30.06,9,4,11,0.00
2013-8-19,67.7,60.3,54.5,58.7,54.5,51.4,93,82,68,30.12,30.05,14,5,14,0.00
2013-8-20,64.0,56.5,51.4,55.3,51.8,48.8,95,85,71,30.17,30.09,9,6,13,0.00
2013-8-21,76.4,60.3,46.5,57.1,50.4,43.4,91,72,41,30.10,29.95,10,3,10,0.00
2013-8-22,79.1,61.0,46.7,58.3,51.7,42.7,94,74,49,29.95,29.81,10,4,13,0.00
2013-8-23,70.0,60.9,54.1,58.2,55.8,52.4,95,84,63,29.88,29.82,9,4,10,0.01
2013-8-24,68.7,60.7,55.4,59.0,56.5,52.2,94,87,67,29.91,29.86,9,3,10,0.03
2013-8-25,65.9,56.4,47.6,54.9,51.3,46.0,95,84,67,29.93,29.86,7,2,8,0.00
2013-8-26,66.9,56.8,46.0,53.5,50.0,44.1,94,79,61,29.90,29.82,6,1,7,0.00
2013-8-27,66.1,58.3,53.2,56.9,53.4,50.2,93,84,66,29.91,29.81,9,2,9,0.11
2013-8-28,64.7,59.9,55.7,59.1,57.0,54.3,96,90,81,29.89,29.81,5,2,7,0.02
2013-8-29,67.4,59.9,56.0,63.1,58.1,54.0,96,94,86,29.94,29.82,4,2,7,0.04
2013-8-30,69.9,61.4,55.0,60.1,56.8,52.4,95,85,71,30.14,29.95,7,3,9,0.00
2013-8-31,69.7,59.5,49.5,59.1,54.6,47.8,96,85,64,30.09,29.83,8,2,9,0.00
2013-9-1,66.2,59.2,49.2,59.0,54.0,47.3,95,83,73,29.87,29.81,11,4,17,0.01
2013-9-2,71.2,60.1,54.2,58.7,55.3,51.3,93,85,61,29.93,29.84,10,2,10,0.03
2013-9-3,66.5,59.0,54.7,60.9,56.6,52.7,96,92,81,30.03,29.93,5,1,7,0.17
2013-9-4,69.3,59.2,52.3,62.4,56.0,50.9,96,90,71,30.05,30.01,7,1,7,0.02
2013-9-5,71.5,61.4,55.9,62.6,57.9,53.3,95,89,66,30.05,29.90,4,1,4,0.17
2013-9-6,64.7,58.2,54.5,61.7,56.4,52.8,96,94,88,30.08,29.90,5,1,7,0.04
2013-9-7,67.8,61.5,54.9,61.8,58.8,53.8,97,91,80,30.09,30.02,6,2,6,0.00
2013-9-8,61.1,56.9,51.8,56.9,54.7,50.1,96,92,86,30.11,30.04,10,4,11,0.01
2013-9-9,62.1,57.7,54.3,58.7,55.7,53.1,97,93,86,30.07,30.00,9,4,12,0.00
2013-9-10,74.6,62.5,48.6,61.1,56.2,47.5,97,81,60,30.01,29.90,7,2,8,0.00
2013-9-11,80.2,67.9,54.7,61.9,57.5,52.6,94,72,49,29.95,29.87,10,3,10,0.00
2013-9-12,61.3,58.3,55.2,58.8,56.3,52.7,96,93,86,29.98,29.90,13,8,15,0.00
2013-9-13,63.4,60.0,57.8,59.7,57.8,56.4,96,92,84,29.96,29.87,6,2,8,0.00
2013-9-14,60.6,56.9,52.6,57.9,55.1,51.2,96,94,85,29.88,29.75,6,2,7,0.00
2013-9-15,61.4,57.6,53.9,60.2,56.6,52.5,100,96,95,29.78,29.70,6,3,9,0.18
2013-9-16,63.0,58.9,56.3,59.6,55.7,50.7,96,89,78,29.92,29.78,11,5,12,0.02
2013-9-17,59.0,56.5,53.3,54.2,51.7,49.4,88,84,79,29.91,29.85,11,5,15,0.00
2013-9-18,67.1,56.8,47.5,54.6,50.0,43.9,92,79,64,30.05,29.92,6,2,8,0.00
2013-9-19,65.1,55.5,47.1,53.6,49.7,45.2,94,82,60,30.03,29.74,6,2,7,0.00
2013-9-20,67.6,54.8,45.0,56.3,50.5,42.8,94,86,59,29.74,29.58,8,2,14,0.04
2013-9-21,63.2,57.8,53.5,58.4,54.8,51.5,96,90,79,29.70,29.63,7,1,10,0.01
2013-9-22,61.0,55.1,51.7,55.3,52.1,49.7,94,90,79,29.67,29.44,6,1,7,0.16
2013-9-23,59.0,53.1,47.3,52.8,49.5,44.8,93,88,72,29.94,29.69,7,2,7,0.05
2013-9-24,59.0,51.2,46.0,51.2,47.5,44.1,94,87,73,29.94,29.84,6,2,6,0.16
2013-9-25,60.9,52.9,47.8,49.9,47.5,42.3,94,83,59,30.00,29.86,8,2,10,0.19
2013-9-26,60.8,49.8,40.2,50.8,43.9,38.0,93,81,58,30.12,30.00,5,1,6,0.00
2013-9-27,58.2,51.5,43.3,52.4,48.3,40.6,93,89,80,30.09,29.81,7,1,8,0.05
2013-9-28,58.1,52.4,50.2,55.8,50.3,48.0,93,93,90,29.79,29.26,7,2,7,0.60
2013-9-29,57.7,52.1,46.8,51.2,48.4,44.6,92,87,78,29.46,29.04,20,4,21,0.46
2013-9-30,57.7,50.0,43.6,52.6,45.4,40.0,89,84,73,29.85,29.32,8,2,11,0.25
2013-10-1,56.2,50.1,42.7,49.6,45.0,39.4,91,83,68,30.07,29.86,6,2,9,0.04
2013-10-2,53.6,49.3,47.1,48.5,45.9,43.8,91,88,81,30.18,30.03,5,1,5,0.07
2013-10-3,55.8,50.7,42.9,48.3,46.2,40.2,90,85,75,30.44,30.18,8,2,10,0.00
2013-10-4,54.4,46.6,38.0,49.3,43.2,35.6,92,88,82,30.46,30.34,7,1,7,0.00
2013-10-5,60.2,52.8,46.9,52.6,48.1,43.8,91,84,73,30.35,30.13,6,1,7,0.00
2013-10-6,60.6,53.1,43.5,52.0,48.6,41.0,91,85,70,29.99,29.78,6,2,6,0.01
2013-10-7,58.4,54.3,51.7,50.9,48.8,46.0,89,82,66,29.98,29.81,10,4,12,0.15
2013-10-8,57.0,52.5,44.0,49.5,45.0,38.9,84,76,60,30.09,29.95,15,6,16,0.02
2013-10-9,56.4,49.8,40.9,47.6,43.9,36.7,89,81,65,30.13,29.95,5,1,6,0.00
2013-10-10,54.0,50.1,47.6,48.6,46.0,43.7,88,86,82,30.06,29.93,4,1,4,0.04
2013-10-11,53.0,49.0,42.5,47.8,44.9,39.5,89,86,81,30.14,30.06,5,0,5,0.00
2013-10-12,55.1,49.1,41.1,48.7,44.7,37.1,88,85,77,30.22,30.06,4,1,5,0.20
2013-10-13,56.4,46.1,37.3,49.4,40.9,33.8,87,82,71,30.36,30.22,6,1,8,0.01
2013-10-14,56.1,45.3,36.2,48.2,40.3,32.7,92,83,71,30.43,30.37,8,1,8,0.01
2013-10-15,56.4,47.6,38.7,49.3,42.1,34.6,85,81,73,30.39,30.17,8,1,10,0.00
2013-10-16,59.0,49.2,40.8,50.0,43.7,36.6,85,82,71,30.21,30.15,6,1,7,0.00
2013-10-17,59.5,45.2,36.8,48.9,39.6,32.4,85,81,68,30.28,30.18,4,0,6,0.01
2013-10-18,55.3,43.6,36.1,48.1,38.5,31.7,84,82,76,30.26,30.15,4,0,4,0.01
2013-10-19,49.9,44.5,37.8,44.0,39.3,33.1,83,82,79,30.20,30.16,2,0,4,0.01
2013-10-20,49.9,47.5,46.2,43.6,41.4,40.4,81,79,78,30.22,30.15,2,0,3,0.00
2013-10-21,52.4,47.3,44.4,45.2,40.9,38.3,79,79,76,30.18,30.10,5,1,5,0.00
2013-10-22,54.6,45.0,39.3,46.8,38.6,33.0,80,78,75,30.13,30.02,3,0,4,0.01
2013-10-23,58.2,45.3,34.4,49.6,38.3,28.6,79,76,73,30.05,29.98,4,1,6,0.01
2013-10-24,48.0,45.3,41.6,40.8,38.4,34.9,77,77,76,30.10,30.02,6,2,7,0.01
2013-10-25,55.7,50.5,46.3,47.4,42.8,39.1,76,75,72,30.31,30.11,4,0,4,0.00
2013-10-26,54.0,49.4,44.7,46.3,41.2,36.6,75,73,72,30.34,30.19,4,1,4,0.00
2013-10-27,55.9,51.0,48.2,47.1,42.1,39.6,75,71,56,30.18,29.95,7,2,7,0.15
2013-10-28,57.7,52.0,38.8,39.7,35.0,30.9,73,53,40,30.02,29.94,8,3,12,0.00
2013-10-29,55.4,42.1,32.3,42.6,33.1,25.6,76,71,53,30.01,29.95,6,1,6,0.00
2013-10-30,54.8,44.7,33.8,44.1,36.3,26.4,75,72,67,30.09,30.01,5,0,5,0.00
2013-10-31,56.5,50.1,44.4,47.9,41.3,35.9,74,72,70,30.24,30.02,4,1,4,0.01
2013-11-1,53.0,50.9,49.7,44.2,41.5,40.3,72,70,69,30.25,29.78,6,1,7,0.02
2013-11-2,49.8,48.3,45.2,41.5,39.5,36.7,75,72,68,29.85,29.32,23,8,24,0.32
2013-11-3,51.2,41.9,32.9,40.6,33.4,25.5,76,72,64,30.09,29.86,6,1,8,0.04
2013-11-4,47.4,40.3,31.7,39.8,32.5,24.0,77,74,71,30.16,30.00,6,1,8,0.00
2013-11-5,48.3,43.7,38.9,40.0,34.7,30.3,73,71,70,30.24,30.00,6,1,8,0.00
2013-11-6,48.7,43.6,36.8,40.4,34.8,28.6,73,71,69,30.31,29.92,4,1,5,0.01
2013-11-7,53.0,48.2,45.1,44.9,38.7,35.9,74,70,68,29.95,29.61,11,4,15,0.15
2013-11-8,52.8,47.8,43.4,44.0,39.0,33.9,74,71,68,30.13,29.95,8,2,12,0.00
2013-11-9,47.9,43.2,39.6,38.9,34.1,30.6,72,70,69,30.13,30.09,5,1,7,0.00
2013-11-10,47.9,44.9,41.5,39.7,35.7,32.4,73,70,68,30.17,30.11,4,1,4,0.02
2013-11-11,52.6,45.6,39.3,44.2,36.3,30.0,73,70,68,30.15,29.96,5,1,6,0.00
2013-11-12,58.6,49.9,42.9,49.6,40.2,33.1,72,69,67,30.33,29.94,6,1,6,0.00
2013-11-13,55.4,49.0,40.6,46.5,38.9,30.9,72,68,66,30.41,30.31,5,2,6,0.01
2013-11-14,49.2,46.2,38.9,39.5,36.1,29.9,70,68,66,30.30,30.05,8,3,9,0.01
2013-11-15,47.8,42.9,35.7,39.6,33.7,26.9,74,70,66,30.06,29.32,23,4,26,0.29
2013-11-16,48.9,45.7,37.4,39.2,36.4,30.2,75,70,65,29.72,29.33,19,6,20,0.00
2013-11-17,50.5,41.2,34.2,40.8,32.5,26.1,75,71,68,29.88,29.72,4,1,5,0.00
2013-11-18,46.6,43.6,38.3,37.1,33.6,28.9,72,68,66,29.88,29.51,10,1,10,0.22
2013-11-19,46.7,43.7,39.3,38.8,33.5,20.7,74,68,47,30.09,29.58,14,7,16,0.12
2013-11-20,41.9,35.3,27.4,32.7,26.8,20.4,76,71,53,30.52,30.11,11,2,11,0.00
2013-11-21,41.0,31.8,25.1,32.2,23.8,17.8,75,72,64,30.68,30.52,4,1,4,0.00
2013-11-22,43.5,34.5,26.5,34.0,26.0,18.4,75,71,66,30.68,30.46,3,0,5,0.01
2013-11-23,45.0,34.6,28.1,36.9,26.1,19.6,74,71,69,30.46,30.22,5,0,5,0.00
2013-11-24,47.8,36.7,29.3,39.6,27.7,20.7,73,70,67,30.25,30.18,6,0,6,0.00
2013-11-25,44.9,36.8,30.8,36.4,27.8,22.2,72,70,67,30.31,30.25,2,0,2,0.01
2013-11-26,42.4,36.0,28.4,32.8,27.1,20.2,71,70,68,30.26,30.10,4,1,4,0.01
2013-11-27,51.1,41.3,34.1,42.4,32.2,25.0,74,70,66,30.09,29.97,5,0,5,0.00
2013-11-28,36.1,34.4,32.5,26.9,25.4,23.8,70,70,69,30.06,30.02,1,0,2,0.00
2013-11-30,48.1,46.2,44.5,36.9,35.2,33.9,67,66,65,30.22,30.04,1,0,2,0.03
2013-12-1,52.7,47.6,42.0,43.2,37.3,34.0,73,67,64,30.03,29.72,22,7,24,0.31
2013-12-2,44.1,40.4,36.5,35.2,31.3,22.5,74,70,56,30.13,29.81,19,8,22,0.00
2013-12-3,39.2,34.1,28.7,23.1,21.4,19.4,74,60,45,30.34,30.14,11,3,19,0.00
2013-12-4,37.5,31.9,24.3,27.3,20.3,13.8,70,62,46,30.35,30.33,8,3,9,0.00
2013-12-5,33.3,28.6,22.4,25.2,20.8,14.5,74,72,66,30.33,30.19,4,1,7,0.00
2013-12-6,31.4,28.0,23.3,21.8,17.0,13.4,74,63,54,30.29,30.18,8,4,10,0.00
2013-12-7,30.5,24.5,17.5,14.4,11.8,8.9,71,59,41,30.42,30.29,5,2,9,0.00
2013-12-8,34.4,25.9,17.2,21.1,16.9,10.0,76,69,54,30.55,30.40,4,1,6,0.00
2013-12-9,35.8,31.1,20.7,27.5,23.4,14.0,75,73,69,30.56,30.47,4,0,6,0.00
2013-12-10,40.9,35.2,29.1,32.2,25.8,20.2,71,68,66,30.47,30.41,2,0,2,0.01
2013-12-11,39.8,33.0,26.6,31.5,24.0,18.1,72,69,67,30.41,30.15,6,0,6,0.00
2013-12-12,42.7,36.8,28.9,34.6,27.6,20.0,73,69,67,30.15,29.96,4,1,4,0.01
2013-12-13,50.6,42.1,35.9,41.9,32.1,26.4,72,67,65,30.41,30.10,7,1,10,0.00
2013-12-14,47.4,44.7,41.2,37.0,33.7,30.7,68,65,64,30.41,30.27,5,1,6,0.01
2013-12-15,51.8,43.0,36.1,41.9,32.6,26.2,71,66,64,30.43,30.28,7,2,7,0.00
2013-12-16,48.8,38.3,31.5,40.2,28.5,22.1,73,68,65,30.48,30.26,4,1,6,0.01
2013-12-17,47.2,38.4,30.0,39.0,28.7,21.1,73,68,65,30.26,30.09,8,1,12,0.00
2013-12-18,46.0,42.4,34.7,37.5,33.2,27.3,74,70,62,30.22,30.02,16,9,21,0.00
2013-12-19,39.2,34.1,27.1,29.2,24.9,19.6,75,69,56,30.36,30.17,4,1,4,0.00
2013-12-20,40.3,35.4,32.8,30.2,25.8,23.0,73,68,67,30.17,29.68,7,1,7,0.31
2013-12-21,43.2,40.8,38.8,32.3,30.4,28.8,68,66,65,30.16,29.86,7,0,7,0.12
2013-12-22,46.3,43.7,41.1,35.2,32.9,30.6,66,66,65,30.27,30.14,6,1,8,0.13
2013-12-23,49.7,45.6,37.7,40.6,35.7,29.5,76,68,63,30.49,30.09,21,7,27,0.07
2013-12-24,46.5,38.6,31.1,36.9,29.2,21.4,72,69,66,30.60,30.50,4,1,5,0.00
2013-12-25,44.8,37.2,30.0,35.6,27.1,20.4,71,67,64,30.54,30.38,3,0,4,0.00
2013-12-26,47.8,39.1,30.7,38.4,28.6,21.0,70,66,64,30.38,30.20,4,1,7,0.00
2013-12-27,49.2,40.3,30.7,37.9,29.8,21.0,67,66,63,30.36,30.08,16,4,18,0.11
2013-12-28,46.6,38.9,31.8,37.3,28.3,21.7,70,66,64,30.52,30.36,5,0,5,0.00
2013-12-29,44.7,39.1,31.9,34.8,28.6,22.2,68,66,64,30.49,30.31,1,0,3,0.00
2013-12-30,44.6,41.3,36.1,33.2,30.3,25.8,66,65,63,30.31,30.10,4,1,4,0.01
2013-12-31,47.7,43.0,37.1,35.3,31.4,26.4,65,63,62,30.37,30.16,3,0,3,0.00
2014-1-1,45.0,41.2,34.4,33.2,29.8,24.2,66,64,62,30.41,30.25,4,1,5,0.04
2014-1-2,48.2,44.5,41.3,36.1,32.5,29.6,70,63,61,30.25,29.88,18,3,21,0.29